Showing default

COSMOS 2567, 55978

Orbit data source: Space-Track

COSMOS 2567, 55978 is a payload satellite owned by VVKO VKS (CIS) in SSO that was launched on Thu, 23 Mar 2023 UTC via a SOYUZ-2-1A launch vehicle from the Plesetsk Missile And Space Complex (PKMTR). Payload-class satellites include a variety of spacecraft equipped with specific instruments for various scientific and technological missions. These include communications satellites like Starlink; space stations such as the ISS; scientific satellites like the Hubble; Earth observation satellites from companies like Planet Labs, Umbra, and HawkEye 360; GPS; miniature CubeSats for education and research; and military/defense satellites.

Loading next visibility...
Identifier
55978, 2023-040A
Orbit
SSO
Country
Flag of CISCIS
Related business
Manufacturer
Arsenal
Mission
Operational Defense Imaging
Bus & Motor
BARS, AOCS
Mass
3,700 kg wet, ~3,500 kg dry
Launch date (UTC)
2023-03-23 (3 years ago)
Launch vehicle
SOYUZ-2-1A
Launch site
Plesetsk Missile And Space Complex (PKMTR)
Object type
Payload
Rocket body
Debris
Shape & HBR
Cyl + 2 Pan, 5.0 m
Radar Cross Section
20.881 m², Large (>1 m²)

Expand to show TLE details & history
Last TLE update: 21 hours ago

TLE from 21 hours ago
0 COSMOS 2567
1 55978U 23040A   26172.55656238  .00002625  00000-0  10844-3 0  9996
2 55978  97.5886  98.7642 0002799  83.5931 276.5625 15.24922469180726
Epoch: 2026-06-21T13:21Z
TLE epoch observation values (Epoch: 2026-06-21T13:21:26.989Z)
Latitude
-0.00003°
Longitude
-11.35338°
Altitude
493.891 km
Speed
7.618 km/s
True Right ascension
06h 35m 03s
True Declination
0° 00' 00"
Sunlit
Object was in daylight at epoch
Visualization orbit readout
Latitude
Unknown
Longitude
Unknown
Altitude
Unknown
Speed
Unknown
Apparent Right ascension
Unknown
Apparent Declination
Unknown
Sunlit
N/A
Visualization observer readout
Local Sidereal Time
21:28:19
Azimuth
Unknown
Elevation
Unknown
Doppler factor
Unknown
Orbital elements
Apogee altitude
489.907 km
Perigee altitude
486.064 km
Semi-major axis
6,866.122 km
Eccentricity
0.00028
Inclination
97.5886°
RAAN
98.7642°
Arg. of periapsis
83.5931°
True anomaly
276.53063°
Mean anomaly
276.5625°
Eccentric anomaly
276.54657°
Mean motion
3.81484 °/min
Orbital period
94.37 mins
BSTAR
0.00010844
Loading maneuver chart data...
Computing Atmospheric mass density...
Loading historical data...
Loading historical data...
Loading historical data...
Loading historical data...
Loading historical data...
Loading historical data...
Loading historical data...
Other satellites on launch #40 in the year 2023 (2023-03-23 UTC)

Documentation

Showing up to 5 results
|